Location: Staunton
(38.1490°N, 79.0720°W)
Time: 14:47:35
(UTC-04:00)

ISS - Pass Details

Date: 24 July 2017
Orbit: 400 x 408 km, 51.6° (Epoch: 21 July)

Event Time Altitude Azimuth Distance (km) Brightness Sun altitude
Rises 21:02:18 0° 215° (SW) 2,295 0.1 -6.0°
Reaches altitude 10° 21:04:25 10° 208° (SSW) 1,440 -1.1 -6.3°
Maximum altitude 21:07:29 43° 136° (SE) 575 -3.5 -6.8°
Drops below altitude 10° 21:10:35 10° 63° (ENE) 1,447 -1.3 -7.3°
Sets 21:12:43 0° 56° (ENE) 2,309 -0.2 -7.7°
